Regional Weather Roundup
Issued by NWS Nashville, TN

Home | Current Version | Previous Version | Text Only | Print | Product List | Glossary On
Versions: 1 2 3 4 5 6 7 8 9 10 11 12 13 14 15 16 17 18 19 20 21 22 23 24 25 26 27 28 29 30 31 32 33 34 35 36 37 38 39 40 41 42 43 44 45 46 47 48 49 50
982
ASUS44 KOHX 120810
RWROHX
MIDDLE TENNESSEE HOURLY WEATHER ROUNDUP
NATIONAL WEATHER SERVICE NASHVILLE TN
200 AM CST FRI FEB 12 2016

NOTE: "FAIR" INDICATES FEW OR NO CLOUDS BELOW 12,000 FEET WITH
NO SIGNIFICANT WEATHER AND/OR OBSTRUCTIONS TO VISIBILITY.

* THESE REPORTS ARE NOT UNDER NWS QUALITY CONTROL AND MAY NOT
  REPORT WEATHER SUCH AS PRECIPITATION AND FOG.


TNZ005>011-023>034-057-059-062>066-078-080-120900
...NORTHERN MIDDLE TENNESSEE...

CITY           SKY/WX    TMP DP  RH WIND       PRES   REMARKS
CLARKSVILLE    CLOUDY    31  18  58 NW3       30.21R
CROSSVILLE     CLOUDY    30  19  63 NE3       30.13F
DICKSON        CLOUDY    30  19  64 CALM      30.16S
LEBANON        MOCLDY    31  20  63 SE3       30.14F
LIVINGSTON     CLOUDY    30  20  66 CALM      30.15F
NASHVILLE      CLOUDY    34  20  56 E5        30.17F WCI  30
PORTLAND       CLOUDY   N/A N/A N/A E3        30.15F
ROCKWOOD       CLOUDY    29  19  66 CALM      30.14F
SMYRNA         CLOUDY    33  22  64 SE8       30.16F WCI  26
SPARTA         PTCLDY    30  25  80 SE3       30.13F
$$
TNZ056-058-060-061-075>077-079-093>097-120900
...SOUTHERN MIDDLE TENNESSEE...

CITY           SKY/WX    TMP DP  RH WIND       PRES   REMARKS
COLUMBIA       CLOUDY    32  27  80 SE3       30.14F
FAYETTEVILLE   MOCLDY    34  25  69 NE5       30.14F WCI  30
LEWISBURG      MOCLDY    30  23  75 CALM      30.17F
MCMINNVILLE    PTCLDY    30  23  74 NE5       30.15F WCI  25
SHELBYVILLE    MOCLDY    32  27  80 CALM      30.17S
TULLAHOMA      CLEAR     30  23  74 NE3       30.15F
WINCHESTER     PTCLDY    30  27  86 CALM      30.16R
$$


...KEY TO REMARKS...
VSB - VISIBILITY IN MILES
WCI - WIND CHILL INDEX
HX  - HEAT INDEX





USA.gov is the U.S. government's official web portal to all federal, state and local government web resources and services.